Change the Weather History Date:

Tuesday, October 9, 2012

  Actual Average Record
Temperature  
Mean Temperature 46 °F -  
Max Temperature 60 °F 66 °F 84 °F (2003)
Min Temperature 33 °F 39 °F 32 °F (2000)
Degree Days  
Heating Degree Days 18    
Moisture  
Dew Point 30 °F    
Average Humidity 65    
Maximum Humidity 81    
Minimum Humidity 16    
Precipitation  
Precipitation 0.00 in - - ()
Sea Level Pressure  
Sea Level Pressure 30.01 in    
Wind  
Wind Speed 10 mph (East)    
Max Wind Speed 18 mph    
Max Gust Speed 29 mph    
Visibility 10 miles    
Events      
Averages and records for this station are not official NWS values.
T = Trace of Precipitation, MM = Missing Value Source: NWS Daily Summary

Daily Weather History Graph

Daily Weather History Graph

Search for Another Location

Airport or City:

Trip Planner

Search our weather history database for the weather conditions in past years. The results will help you decide how hot, cold, wet, or windy it might be!

Date:

Astronomy

Oct. 09, 2012 Rise Set
Actual Time 7:03 AM MDT 6:27 PM MDT
Civil Twilight 6:36 AM MDT 6:54 PM MDT
Nautical Twilight 6:05 AM MDT 7:26 PM MDT
Astronomical Twilight 5:34 AM MDT 7:57 PM MDT
Moon 12:43 AM MDT (10/9) 2:56 PM MDT (10/9)
Length of Visible Light 12h 18m
Length of Day
11h 24m
Last Quarter, 36% of the Moon is Illuminated
Oct 9
Last Quarter
Oct 15
New
Oct 21
First Quarter
Oct 29
Full
Nov 6
Last Quarter

Hourly Weather History & Observations

Time (MDT) Temp. Windchill Dew Point Humidity Pressure Visibility Wind Dir Wind Speed Gust Speed Precip Events Conditions
12:55 AM 50.0 °F - 12.2 °F 22% 29.74 in 25.0 mi South 13.8 mph - N/A   Scattered Clouds
1:55 AM 53.6 °F - 12.2 °F 19% 29.73 in 25.0 mi SSW 13.8 mph 19.6 mph N/A   Scattered Clouds
2:55 AM 60.8 °F - 14.0 °F 16% 29.70 in 25.0 mi West 18.4 mph 28.8 mph N/A   Scattered Clouds
3:55 AM 44.6 °F 38.1 °F 19.4 °F 37% 29.79 in 25.0 mi NNE 13.8 mph - N/A   Scattered Clouds
4:55 AM 37.4 °F 32.8 °F 24.8 °F 60% 29.84 in 25.0 mi East 5.8 mph - N/A   Scattered Clouds
5:55 AM 33.8 °F 29.6 °F 26.6 °F 75% 29.91 in 25.0 mi NW 4.6 mph - N/A   Scattered Clouds
6:55 AM 33.8 °F 30.8 °F 26.6 °F 75% 29.95 in 25.0 mi WNW 3.5 mph - N/A   Scattered Clouds
7:55 AM 35.6 °F 32.8 °F 30.2 °F 81% 29.97 in 70.0 mi NNE 3.5 mph - N/A   Partly Cloudy
8:55 AM 39.2 °F 33.6 °F 32.0 °F 75% 30.01 in 70.0 mi East 8.1 mph - N/A   Scattered Clouds
9:55 AM 41.0 °F 37.1 °F 32.0 °F 70% 30.03 in 10.0 mi ENE 5.8 mph - N/A   Mostly Cloudy
10:55 AM 42.8 °F 38.6 °F 32.0 °F 66% 30.03 in 10.0 mi NE 6.9 mph - N/A   Mostly Cloudy
11:55 AM 42.8 °F 38.6 °F 35.6 °F 76% 30.02 in 10.0 mi East 6.9 mph - N/A   Overcast
12:55 PM 42.8 °F 39.3 °F 33.8 °F 70% 30.02 in 10.0 mi NE 5.8 mph - N/A   Mostly Cloudy
1:55 PM 42.8 °F 36.6 °F 35.6 °F 76% 30.01 in 10.0 mi ENE 11.5 mph - N/A   Overcast
2:55 PM 42.8 °F 37.5 °F 33.8 °F 70% 30.01 in 10.0 mi ENE 9.2 mph - N/A   Overcast
3:55 PM 42.8 °F 39.3 °F 35.6 °F 76% 30.09 in 10.0 mi ESE 5.8 mph - N/A   Overcast
4:55 PM 42.8 °F 38.6 °F 33.8 °F 70% 30.13 in 10.0 mi ESE 6.9 mph - N/A   Overcast
5:55 PM 42.8 °F - 35.6 °F 76% 30.15 in 10.0 mi East 1.2 mph - N/A   Overcast
6:55 PM 42.8 °F - 33.8 °F 70% 30.17 in 10.0 mi Calm Calm - N/A   Overcast
7:55 PM 42.8 °F 41.1 °F 35.6 °F 76% 30.19 in 10.0 mi ESE 3.5 mph - N/A   Overcast
8:55 PM 42.8 °F 39.3 °F 35.6 °F 76% 30.19 in 10.0 mi ESE 5.8 mph - N/A   Overcast
9:55 PM 42.8 °F 35.8 °F 35.6 °F 76% 30.20 in 10.0 mi SE 13.8 mph - N/A   Overcast
10:55 PM 42.8 °F 37.0 °F 35.6 °F 76% 30.17 in 10.0 mi SE 10.4 mph - N/A   Overcast
11:55 PM 42.8 °F 37.5 °F 35.6 °F 76% 30.16 in 10.0 mi SSE 9.2 mph - N/A   Overcast